Regional Weather Roundup
Issued by NWS

Home | Current Version | Previous Version | Text Only | Print | Product List | Glossary Off
Versions: 1 2 3 4 5 6 7 8 9 10 11 12 13 14 15 16 17 18 19 20 21 22 23 24 25 26 27 28 29 30 31 32 33 34 35 36 37 38 39 40 41 42 43 44 45 46 47 48 49 50

452
ASUS44 KJAN 201210
RWRMS

MISSISSIPPI HOURLY WEATHER ROUNDUP
NATIONAL WEATHER SERVICE JACKSON MS
700 AM CDT MON APR 20 2015

NOTE: "FAIR: INDICATES FEW OR NO CLOUDS BELOW 12,000 FEET WITH NO
SIGNIFICANT WEATHER AND/OR OBSTRUCTIONS TO VISIBILITY.

MSZ001>002-007>008-010>013-018>021-025>028-034>036-201300-
NORTHWEST MISSISSIPPI

CITY           SKY/WX    TMP DP  RH WIND       PRES   REMARKS
CLARKSDALE       N/A     55  54  94 W12       29.77R
CLEVELAND      FAIR      57  53  88 W12G21    29.78R
GREENWOOD      CLEAR     58  50  75 VRB6      29.78R
6HR MIN TEMP:  58; 6HR MAX TEMP:  68;

GREENVILLE     CLEAR     57  50  77 NW13      29.79R
6HR MIN TEMP:  57; 6HR MAX TEMP:  66;

OLIVE BRANCH   MOCLDY    55  55 100 W12G21    29.72R
OXFORD         FAIR      54  52  94 W6        29.76R
TUNICA         SUNNY     55  52  88 W15       29.76R
$$

MSZ003>006-009-014>017-022>024-029>033-037>039-201300-
NORTHEAST MISSISSIPPI

CITY           SKY/WX    TMP DP  RH WIND       PRES   REMARKS
COLUMBUS AFB   CLEAR     58  58  98 SW6       29.74R
6HR MIN TEMP:  58; 6HR MAX TEMP:  64; 6HR PCP:  0.01;

CORINTH        CLOUDY    59  52  77 W13       29.69R
GOLDN TRIANGLE CLEAR     61  52  72 W12       29.74R
STARKVILLE     FAIR      55  54  94 W3        29.76R
TUPELO         CLOUDY    58  54  86 W7        29.72R
6HR MIN TEMP:  57; 6HR MAX TEMP:  60; 6HR PCP:  0.10;

$$

MSZ040-058-201300-
CENTRAL MISSISSIPPI

CITY           SKY/WX    TMP DP  RH WIND       PRES   REMARKS
JACKSON INTL   CLEAR     62  56  80 NW8       29.79R
6HR MIN TEMP:  59; 6HR MAX TEMP:  72;

JACKSON HAWKNS CLEAR     60  55  83 NW7       29.80R
6HR MIN TEMP:  60; 6HR MAX TEMP:  71;

MERIDIAN KEY   PTCLDY    61  57  87 S6        29.77R
6HR MIN TEMP:  61; 6HR MAX TEMP:  71;

MERIDIAN NAS   PTCLDY    63  55  75 SW6       29.76R
6HR MIN TEMP:  63; 6HR MAX TEMP:  72;

RAYMOND        FAIR      59  54  82 NW6       29.80R
VICKSBURG      PTCLDY    60  52  74 NW5       29.83R
6HR MIN TEMP:  60; 6HR MAX TEMP:  70;

$$

MSZ059>079-201300-
SOUTH MISSISSIPPI

CITY           SKY/WX    TMP DP  RH WIND       PRES   REMARKS
BROOKHAVEN       N/A     61  61 100 CALM      29.82R
HATTIESBURG    PTCLDY    66  63  90 SW5       29.80R
6HR MIN TEMP:  65; 6HR MAX TEMP:  72;

MCCOMB         CLEAR     62  59  90 W5        29.82R
6HR MIN TEMP:  62; 6HR MAX TEMP:  67;

NATCHEZ        CLEAR     59  55  88 NW7       29.83R
6HR MIN TEMP:  57; 6HR MAX TEMP:  63;

PINE BELT      PTCLDY    63  55  77 CALM      29.81R
6HR MIN TEMP:  63; 6HR MAX TEMP:  72;

$$

MSZ080>082-201300-
COASTAL MISSISSIPPI

CITY           SKY/WX    TMP DP  RH WIND       PRES   REMARKS
BAY ST LOUIS   CLEAR     66  63  88 MISG      29.81
BILOXI         CLOUDY    71  70  96 VRB1      29.79R
6HR MIN TEMP:  68; 6HR MAX TEMP:  74;

PASCAGOULA     CLOUDY    71  68  90 NW5       29.79R
6HR MIN TEMP:  65; 6HR MAX TEMP:  73;

GULFPORT       CLOUDY    68  66  93 W3        29.80R
6HR MIN TEMP:  67; 6HR MAX TEMP:  74;

$$



USA.gov is the U.S. government's official web portal to all federal, state and local government web resources and services.